[[{"header":{"parameterUnit":"m.s-1","parameterCategory":1,"la1":30.2991,"la2":30.254,"lo1":-89.0895,"lo2":-89.0444,"dy":0.0017,"dx":0.0017,"nx":28,"ny":28,"refTime":"2025-08-24T09:00:00:Z","depth":0,"parameterNumber":2,"parameterNumberName":"U-component_of_WINDS"},"data":[0,0,0,0,0,0,0,0,0,0,0,0,0,0,0,0,0,0,0,0,0,0,0,0,0,0,0,0,0,0,0,0,0,0,0,0,0,0,0,0,0,0,0,0,0,0,0,0,0,0,0,0,0,0,0,0,0,0,-1.5011,-1.5011,0,-1.5046,-1.5046,-1.5046,-1.5038,-1.5037,-1.5036,-1.5036,-1.5069,-1.5071,-1.5072,0,0,0,0,0,0,0,0,0,0,0,0,0,-1.4935,-1.4936,-1.5011,-1.5011,-1.5012,-1.5046,-1.5046,-1.5047,-1.5038,-1.5037,-1.5036,-1.5036,-1.5069,-1.5071,-1.5072,0,0,0,0,0,0,0,0,0,0,0,0,0,-1.4968,-1.4936,-1.5011,-1.5012,-1.5012,-1.5046,-1.5046,-1.5047,-1.5038,-1.5037,-1.5036,-1.5035,-1.5068,-1.507,-1.5073,-1.5107,0,0,-1.508,-1.5081,0,0,0,0,0,0,0,0,-1.4966,-1.4971,-1.5011,-1.5012,-1.5012,-1.5036,-1.5031,-1.5067,-1.5038,-1.5028,-1.5036,-1.5035,-1.5059,-1.5062,-1.5071,-1.5108,-1.511,-1.508,-1.5081,-1.5082,-1.5083,0,0,0,0,0,0,0,-1.4964,-1.497,-1.5025,-1.5012,-1.5012,-1.5009,-1.5013,-1.5038,-1.5049,-1.5029,-1.5028,-1.5033,-1.5059,-1.5069,-1.5071,-1.511,-1.508,-1.5082,-1.5083,-1.5084,-1.5176,-1.5177,0,0,0,0,0,0,-1.4962,-1.4968,-1.5023,-1.5026,-1.4986,-1.5012,-1.5016,-1.503,-1.5048,-1.505,-1.5034,-1.5032,-1.5065,-1.5069,-1.5073,-1.5113,-1.5082,-1.5084,-1.5086,-1.5175,-1.5177,-1.5178,0,0,0,0,0,0,-1.496,-1.4967,-1.5022,-1.4997,-1.5003,-1.5014,-1.503,-1.5031,-1.504,-1.5052,-1.5054,-1.5041,-1.5064,-1.5069,-1.5098,-1.5114,-1.5085,-1.5087,-1.5174,-1.5176,-1.5177,-1.5194,0,0,0,0,0,0,-1.4958,-1.4966,-1.498,-1.4997,-1.5005,-1.5048,-1.5031,-1.5032,-1.5044,-1.5043,-1.506,-1.5061,-1.5064,-1.5095,-1.51,-1.5116,-1.5089,-1.5173,-1.5175,-1.5177,-1.5192,-1.5196,-1.5199,0,0,0,0,0,-1.4955,-1.4983,-1.4981,-1.4987,-1.5022,-1.5049,-1.5053,-1.5056,-1.5046,-1.5059,-1.5066,-1.5061,-1.5111,-1.5098,-1.5104,-1.5121,-1.5172,-1.5174,-1.5177,-1.519,-1.5195,-1.5199,0,0,0,0,0,0,-1.4967,-1.4985,-1.4983,-1.5017,-1.5032,-1.5047,-1.5064,-1.5061,-1.5079,-1.5076,-1.5079,-1.5083,-1.5112,-1.5119,-1.5104,-1.5154,-1.514,-1.5144,-1.5148,-1.5153,-1.5156,-1.5153,-1.5091,0,0,0,0,0,-1.4974,-1.4994,-1.5009,-1.5038,-1.5045,-1.5054,-1.5065,-1.5067,-1.5081,-1.5087,-1.5097,-1.5111,-1.5129,-1.5142,-1.516,-1.5193,-1.5196,-1.5208,-1.5212,-1.5214,-1.5217,-1.5234,-1.5239,-1.5186,-1.5186,-1.5186,0,0,-1.4987,-1.5,-1.5013,-1.5041,-1.5052,-1.5072,-1.5059,-1.5081,-1.5096,-1.509,-1.5118,-1.5126,-1.5141,-1.5172,-1.5186,-1.5179,-1.5233,-1.5218,-1.522,-1.5221,-1.5237,-1.5242,-1.5247,-1.5188,-1.5187,-1.5187,0,0,-1.5023,-1.5035,-1.506,-1.5071,-1.5089,-1.5094,-1.51,-1.5116,-1.5121,-1.5149,-1.5145,-1.5162,-1.5195,-1.5206,-1.5216,-1.5255,-1.525,-1.5261,-1.5279,-1.5296,-1.53,-1.5304,-1.5316,-1.5321,-1.5264,-1.5264,-1.5264,0,-1.5037,-1.5069,-1.5073,-1.5095,-1.5107,-1.5103,-1.5128,-1.5139,-1.5161,-1.5169,-1.5161,-1.5201,-1.5212,-1.5245,-1.5254,-1.5263,-1.5268,-1.5258,-1.5299,-1.5303,-1.5307,-1.5318,-1.5323,-1.5265,-1.5265,-1.5265,-1.5265,0,-1.5085,-1.5107,-1.5125,-1.5147,-1.5161,-1.5184,-1.5191,-1.5204,-1.5204,-1.521,-1.5238,-1.525,-1.527,-1.5278,-1.5278,-1.5311,-1.5306,-1.5299,-1.5284,-1.5313,-1.5324,-1.5329,-1.5267,-1.5266,-1.5266,-1.5266,0,0,-1.5128,-1.5152,-1.5158,-1.5168,-1.5187,-1.5203,-1.5226,-1.5246,-1.5257,-1.5273,-1.5291,-1.5319,-1.5312,-1.5323,-1.5324,-1.5339,-1.5368,-1.533,-1.533,-1.5335,-1.5403,-1.5407,-1.5412,-1.5365,-1.5366,-1.5367,-1.5401,0,-1.5164,-1.5205,-1.5209,-1.5245,-1.5265,-1.5261,-1.5281,-1.5294,-1.53,-1.5317,-1.5324,-1.5343,-1.5333,-1.534,-1.5354,-1.5361,-1.5381,-1.5359,-1.5381,-1.5381,-1.5376,-1.5418,-1.5423,-1.5455,-1.5405,-1.5406,-1.5407,0,-1.5211,-1.5228,-1.5267,-1.5282,-1.5291,-1.5308,-1.5327,-1.5343,-1.5358,-1.5361,-1.5373,-1.5372,-1.5395,-1.538,-1.541,-1.5395,-1.5405,-1.5409,-1.5411,-1.5412,-1.5395,-1.5419,-1.5465,-1.5469,-1.5414,-1.5413,-1.5413,0,-1.5237,-1.527,-1.5297,-1.5305,-1.5324,-1.5336,-1.5345,-1.5359,-1.537,-1.5386,-1.5393,-1.5411,-1.5421,-1.5434,-1.5438,-1.5427,-1.5468,-1.5454,-1.547,-1.547,-1.5477,-1.5477,-1.5524,-1.5486,-1.5486,-1.5486,-1.5485,0,-1.5276,-1.5299,-1.5308,-1.5325,-1.535,-1.5354,-1.5379,-1.5387,-1.5399,-1.5416,-1.5414,-1.543,-1.5435,-1.5451,-1.5454,-1.5478,-1.5482,-1.5485,-1.5485,-1.5484,-1.5484,-1.5489,-1.5487,-1.5487,-1.5487,-1.5486,-1.5486,0,-1.5308,-1.5316,-1.5345,-1.5361,-1.5365,-1.5383,-1.5396,-1.5411,-1.5417,-1.5439,-1.5444,-1.5453,-1.5472,-1.5477,-1.55,-1.5502,-1.5529,-1.5528,-1.5525,-1.5524,-1.5539,-1.5537,-1.5591,-1.5598,-1.5556,-1.5557,-1.5557,0,-1.5332,-1.535,-1.5368,-1.5379,-1.5388,-1.5407,-1.5419,-1.5423,-1.5436,-1.5453,-1.5466,-1.5485,-1.55,-1.5531,-1.5539,-1.5556,-1.5554,-1.5572,-1.5557,-1.5555,-1.5553,-1.5551,-1.5552,-1.5574,-1.5575,-1.5575,-1.5575,0,-1.5373,-1.5376,-1.5393,-1.5412,-1.5426,-1.5441,-1.5455,-1.5464,-1.5471,-1.5484,-1.5504,-1.5516,-1.554,-1.5558,-1.5575,-1.5583,-1.558,-1.558,-1.5585,-1.5583,-1.558,-1.5581,-1.5531,-1.5579,-1.5578,-1.5578,-1.5578,-1.5578,-1.5401,-1.5416,-1.5431,-1.545,-1.5461,-1.5474,-1.5489,-1.5497,-1.5514,-1.5534,-1.5535,-1.5556,-1.5569,-1.5592,-1.5601,-1.5617,-1.5611,-1.5618,-1.562,-1.5621,-1.5621,-1.5579,-1.562,-1.562,-1.562,-1.562,-1.562,0,-1.544,-1.545,-1.5467,-1.5487,-1.5502,-1.5499,-1.5515,-1.5527,-1.5546,-1.5559,-1.5574,-1.5596,-1.5614,-1.5623,-1.564,-1.5651,-1.565,-1.5655,-1.5654,-1.5655,-1.5626,-1.562,-1.5656,-1.5656,-1.5656,-1.5656,-1.5656,-1.5656,-1.5462,-1.5488,-1.5492,-1.5523,-1.5532,-1.5553,-1.5561,-1.5573,-1.5583,-1.5608,-1.5623,-1.563,-1.5641,-1.5659,-1.5674,-1.5677,-1.5682,-1.5688,-1.569,-1.5661,-1.5658,-1.5654,-1.5648,-1.569,-1.569,-1.5718,-1.5718,-1.5718]},{"header":{"parameterUnit":"m.s-1","parameterCategory":1,"la1":30.2991,"la2":30.254,"lo1":-89.0895,"lo2":-89.0444,"dy":0.0017,"dx":0.0017,"nx":28,"ny":28,"refTime":"2025-08-24T09:00:00:Z","depth":0,"parameterNumber":3,"parameterNumberName":"V-component_of_WINDS"},"data":[0,0,0,0,0,0,0,0,0,0,0,0,0,0,0,0,0,0,0,0,0,0,0,0,0,0,0,0,0,0,0,0,0,0,0,0,0,0,0,0,0,0,0,0,0,0,0,0,0,0,0,0,0,0,0,0,0,0,-0.9711,-0.9712,0,-0.9779,-0.978,-0.9781,-0.9832,-0.9833,-0.9833,-0.9834,-0.9905,-0.9907,-0.9908,0,0,0,0,0,0,0,0,0,0,0,0,0,-0.9629,-0.963,-0.9711,-0.9712,-0.9713,-0.9779,-0.978,-0.9781,-0.9832,-0.9833,-0.9834,-0.9834,-0.9905,-0.9906,-0.9908,0,0,0,0,0,0,0,0,0,0,0,0,0,-0.9677,-0.963,-0.9711,-0.9747,-0.975,-0.9779,-0.978,-0.9781,-0.9832,-0.9833,-0.9834,-0.9834,-0.9904,-0.9906,-0.9908,-0.9907,0,0,-0.9915,-0.9916,0,0,0,0,0,0,0,0,-0.9674,-0.968,-0.974,-0.9744,-0.9749,-0.9798,-0.9777,-0.9823,-0.9832,-0.9801,-0.9834,-0.9835,-0.9869,-0.9874,-0.9885,-0.9911,-0.9914,-0.9915,-0.9917,-0.9918,-0.9918,0,0,0,0,0,0,0,-0.9671,-0.9678,-0.9738,-0.9741,-0.9746,-0.976,-0.9767,-0.9786,-0.983,-0.9804,-0.9808,-0.9815,-0.9871,-0.9883,-0.9887,-0.9915,-0.9915,-0.9917,-0.9918,-0.9919,-0.9943,-0.9942,0,0,0,0,0,0,-0.9662,-0.9674,-0.9736,-0.974,-0.9712,-0.9761,-0.9769,-0.9781,-0.983,-0.9838,-0.9814,-0.9817,-0.9879,-0.9885,-0.989,-0.9892,-0.9917,-0.992,-0.9921,-0.9943,-0.9943,-0.9942,0,0,0,0,0,0,-0.966,-0.9667,-0.9733,-0.9708,-0.9718,-0.9761,-0.9774,-0.9782,-0.9794,-0.9838,-0.9847,-0.9818,-0.988,-0.9887,-0.9903,-0.9895,-0.9921,-0.9922,-0.9944,-0.9943,-0.9942,-0.9895,0,0,0,0,0,0,-0.9657,-0.9666,-0.9665,-0.9708,-0.9719,-0.9744,-0.9774,-0.9783,-0.9797,-0.9802,-0.9844,-0.9851,-0.9881,-0.9899,-0.9905,-0.9898,-0.9924,-0.9945,-0.9944,-0.9943,-0.9897,-0.9893,-0.9888,0,0,0,0,0,-0.9654,-0.965,-0.9665,-0.9672,-0.9719,-0.9743,-0.975,-0.9783,-0.9797,-0.9797,-0.9825,-0.985,-0.9895,-0.99,-0.9907,-0.9901,-0.9946,-0.9944,-0.9943,-0.99,-0.9894,-0.9888,0,0,0,0,0,0,-0.9606,-0.9656,-0.9673,-0.9683,-0.9708,-0.9752,-0.9753,-0.9776,-0.9798,-0.9801,-0.9843,-0.9852,-0.9863,-0.9884,-0.9889,-0.9903,-0.9924,-0.9923,-0.9888,-0.9883,-0.9879,-0.9873,-0.9926,0,0,0,0,0,-0.9596,-0.9611,-0.9654,-0.9658,-0.967,-0.9709,-0.9721,-0.9744,-0.9773,-0.9784,-0.9814,-0.9841,-0.9861,-0.9873,-0.9895,-0.9901,-0.9911,-0.9901,-0.9896,-0.9892,-0.9891,-0.9896,-0.9892,-0.9937,-0.9937,-0.9937,0,0,-0.9576,-0.9606,-0.9612,-0.9649,-0.9672,-0.9686,-0.9718,-0.9732,-0.9744,-0.9787,-0.9802,-0.9825,-0.9858,-0.9869,-0.9875,-0.9887,-0.9881,-0.989,-0.9887,-0.9888,-0.9894,-0.989,-0.9886,-0.9936,-0.9936,-0.9936,0,0,-0.9548,-0.9571,-0.9577,-0.9599,-0.9632,-0.9658,-0.966,-0.97,-0.9716,-0.9733,-0.9766,-0.978,-0.9814,-0.9836,-0.9852,-0.9832,-0.9856,-0.9838,-0.9814,-0.9818,-0.9814,-0.9811,-0.9804,-0.9801,-0.9837,-0.9837,-0.9837,0,-0.9519,-0.9542,-0.9577,-0.9589,-0.9605,-0.9644,-0.965,-0.967,-0.9708,-0.9718,-0.9731,-0.9774,-0.9799,-0.9816,-0.981,-0.9822,-0.9825,-0.9833,-0.9812,-0.9809,-0.9807,-0.98,-0.9797,-0.9834,-0.9835,-0.9835,-0.9835,0,-0.9505,-0.952,-0.9521,-0.9556,-0.9572,-0.9581,-0.9618,-0.963,-0.9652,-0.9677,-0.9694,-0.9725,-0.9753,-0.9759,-0.9782,-0.9779,-0.9785,-0.9804,-0.9826,-0.98,-0.9794,-0.9792,-0.9831,-0.9832,-0.9832,-0.9833,0,0,-0.9447,-0.9502,-0.9502,-0.9518,-0.9558,-0.9571,-0.9582,-0.9609,-0.9618,-0.9644,-0.9654,-0.9682,-0.97,-0.9718,-0.9743,-0.9747,-0.9728,-0.9766,-0.9767,-0.9757,-0.9727,-0.9711,-0.9708,-0.9744,-0.9744,-0.9744,-0.9724,0,-0.9424,-0.9445,-0.9478,-0.9489,-0.9503,-0.9541,-0.955,-0.9576,-0.96,-0.9616,-0.9643,-0.9662,-0.9684,-0.9695,-0.9701,-0.9729,-0.9722,-0.9731,-0.9755,-0.9755,-0.9744,-0.9705,-0.9689,-0.9668,-0.9722,-0.9721,-0.9721,0,-0.9401,-0.9423,-0.9435,-0.9473,-0.9481,-0.9489,-0.9516,-0.9531,-0.9561,-0.9578,-0.9598,-0.9625,-0.9639,-0.9659,-0.968,-0.9685,-0.9696,-0.9712,-0.9712,-0.9715,-0.9736,-0.9706,-0.9663,-0.9659,-0.9718,-0.9718,-0.9719,0,-0.9356,-0.939,-0.9401,-0.9414,-0.946,-0.9464,-0.9484,-0.9515,-0.9529,-0.9553,-0.9562,-0.9588,-0.9602,-0.9621,-0.9655,-0.9666,-0.9671,-0.9694,-0.9686,-0.9685,-0.9685,-0.9684,-0.9642,-0.9693,-0.9693,-0.9693,-0.9693,0,-0.9327,-0.9333,-0.9382,-0.9389,-0.9396,-0.9434,-0.9441,-0.9464,-0.9491,-0.9503,-0.9538,-0.9549,-0.9593,-0.9609,-0.9636,-0.9649,-0.9655,-0.9669,-0.9676,-0.9666,-0.9664,-0.9673,-0.9676,-0.9693,-0.9693,-0.9693,-0.9693,0,-0.9279,-0.9312,-0.9327,-0.9368,-0.9379,-0.9382,-0.9418,-0.9427,-0.9453,-0.9468,-0.9474,-0.9514,-0.9536,-0.9571,-0.9603,-0.9621,-0.9628,-0.9641,-0.9618,-0.9622,-0.9611,-0.9611,-0.9573,-0.957,-0.9624,-0.9623,-0.9623,0,-0.9257,-0.9262,-0.9304,-0.9315,-0.9332,-0.9349,-0.9363,-0.94,-0.9414,-0.9449,-0.9453,-0.9477,-0.9497,-0.9529,-0.9562,-0.9587,-0.9599,-0.9584,-0.9603,-0.9593,-0.9599,-0.9597,-0.9598,-0.958,-0.9579,-0.9578,-0.9578,0,-0.9216,-0.9232,-0.9251,-0.9275,-0.9291,-0.9312,-0.9335,-0.9342,-0.9385,-0.9398,-0.9419,-0.9436,-0.9468,-0.9491,-0.952,-0.9541,-0.9566,-0.9572,-0.9571,-0.956,-0.9546,-0.9553,-0.9605,-0.9572,-0.9573,-0.9573,-0.9573,-0.9574,-0.918,-0.9186,-0.9216,-0.9236,-0.9257,-0.9278,-0.9287,-0.9314,-0.9333,-0.9361,-0.9382,-0.9402,-0.9433,-0.9474,-0.9494,-0.951,-0.9522,-0.9521,-0.9521,-0.952,-0.9515,-0.9544,-0.9516,-0.9516,-0.9516,-0.9517,-0.9517,0,-0.914,-0.9161,-0.9179,-0.9209,-0.9225,-0.9247,-0.9274,-0.9285,-0.9302,-0.9328,-0.9348,-0.9372,-0.9395,-0.943,-0.9455,-0.9462,-0.9474,-0.9467,-0.9467,-0.9471,-0.9504,-0.9502,-0.9456,-0.9456,-0.9456,-0.9456,-0.9456,-0.9457,-0.9121,-0.9132,-0.9151,-0.9174,-0.9195,-0.9214,-0.9227,-0.9247,-0.9268,-0.9293,-0.9312,-0.9334,-0.9364,-0.9392,-0.9413,-0.9423,-0.9431,-0.942,-0.9433,-0.9463,-0.9469,-0.9474,-0.9472,-0.9421,-0.9421,-0.9399,-0.9398,-0.9398]}]]